Location: Kampernieuwstad
(52.5135°N, 5.8742°E)
Time: 12:32:39
(UTC+00:00)

Cosmos 372 Rocket - Pass Details

Date: 15 May 2026
Orbit: 734 x 761 km, 74.1° (Epoch: 8 June)

Event Time Altitude Azimuth Distance (km) Brightness Sun altitude
Rises 21:55:01 0° 334° (NNW) 3,196 9.1 -15.4°
Reaches altitude 10° 21:57:23 10° 336° (NNW) 2,265 7.8 -15.5°
Maximum altitude 22:02:32 81° 64° (ENE) 754 3.9 -15.8°
Enters shadow 22:05:24 26° 150° (SSE) 1,412 4.8 -16.0°
